Terug naar catalogus

ONEWEB-0329

ActiefCommunicatiePO
NORAD 49107·PAYLOAD·🇬🇧 United Kingdom

Gelanceerd Aug 21, 2021 vanaf Baikonur Cosmodrome

Loading…

Volgende Passages (komende 24 uur)

TLE

VersSource: CelesTrak SupGP

Epoch: Sep 14, 2026, 13:58 UTC

1 49107C 21075AJ  26257.58246944  .00003041  00000+0  78415-2 0  2571
2 49107  87.9203 348.1159 0001814 106.9233   5.8077 13.17645759    17

Volg ONEWEB-0329 in realtime met AllMySat

Download on the App Store